Regional Weather Roundup
Issued by NWS

Home | Current Version | Previous Version | Text Only | Print | Product List | Glossary Off
Versions: 1 2 3 4 5 6 7 8 9 10 11 12 13 14 15 16 17 18 19 20 21 22 23 24 25 26 27 28 29 30 31 32 33 34 35 36 37 38 39 40 41 42 43 44 45 46 47 48 49 50

296
ASUS43 KBIS 051002
RWRND

NORTH DAKOTA REGIONAL WEATHER ROUNDUP
NATIONAL WEATHER SERVICE BISMARCK ND
400 AM CST MON DEC 05 2016

NOTE: "FAIR" INDICATES FEW OR NO CLOUDS BELOW 12,000 FEET WITH NO
SIGNIFICANT WEATHER AND/OR OBSTRUCTIONS TO VISIBILITY.


NDZ001>003-009>011-017-051100-
NORTHWEST NORTH DAKOTA

CITY           SKY/WX    TMP DP  RH WIND       PRES   REMARKS
WILLISTON      MOCLDY    25  23  92 SW5       29.48S WCI  19
MINOT          CLOUDY    19  16  88 E7        29.53F WCI  10
MINOT AFB      CLOUDY    18  15  91 E9        29.52F WCI   6
$$

NDZ018>021-031>035-040>046-051100-
SOUTHWEST NORTH DAKOTA

CITY           SKY/WX    TMP DP  RH WIND       PRES   REMARKS
BISMARCK       CLOUDY    19  16  88 N6        29.58S WCI  11
DICKINSON      CLOUDY    29  24  82 SW7       29.49R
GARRISON         N/A     23  20  88 E8        29.50F WCI  14
HETTINGER ARPT CLOUDY    19  15  84 NW3       29.52S
$$

NDZ004>008-012>016-024-026-027-054-051100-
NORTHEAST NORTH DAKOTA

CITY           SKY/WX    TMP DP  RH WIND       PRES   REMARKS
GRAND FORKS    CLOUDY    26  23  88 CALM      29.70F
GRND FRKS AFB  CLOUDY    26  24  93 SE5       29.69F
DEVILS LAKE    FOG       23  22  96 E10       29.64F VSB 1/2 WCI  12
$$

NDZ022-023-025-028>030-036>039-047>053-051100-
SOUTHEAST NORTH DAKOTA

CITY           SKY/WX    TMP DP  RH WIND       PRES   REMARKS
FARGO          PTCLDY    21  18  88 CALM      29.70F
JAMESTOWN      CLOUDY    24  22  91 E5        29.62F WCI  18
$$





USA.gov is the U.S. government's official web portal to all federal, state and local government web resources and services.